Tracking 30074 objects as of 13-Jan-2025
HD Live streaming from Space Station
objects crossing your sky now

STARLINK-1244

Track STARLINK-1244 now!
10-day predictions
STARLINK-1244 is classified as:


NORAD ID: 45196
Int'l Code: 2020-012U
Perigee: 553.5 km
Apogee: 555.2 km
Inclination: 53.1 °
Period: 95.6 minutes
Semi major axis: 6925 km
RCS: Unknown
Launch date: February 17, 2020
Source: United States (US)
Launch site: AIR FORCE EASTERN TEST RANGE (AFETR)
Your satellite tracking list
Your tracking list is empty




NASA's NSSDC Master Catalog

Two Line Element Set (TLE):
1 45196U 20012U   25013.03790823 -.00000495  00000-0 -14330-4 0  9998
2 45196  53.0551 134.9961 0001244  93.7430 266.3701 15.06397666271482
Source of the keplerian elements: AFSPC